Back to catalog

QIANFAN-224

AliveCommunicationsPO
NORAD 69853·PAYLOAD·🇨🇳 China

Launched Jul 5, 2026 from Wenchang Space Launch Site

Loading…

Next Passes (next 24 hours)

TLE

FreshSource: Space-Track

Epoch: Sep 14, 2026, 10:51 UTC

1 69853U 26155F   26257.45234642  .00000008  00000-0 -66732-5 0  9990
2 69853  89.0062  54.3104 0036011  31.3243 329.0047 13.57098202  9913

Track QIANFAN-224 in real time with AllMySat

Download on the App Store